Wind_Speed
34 31 30 28 29 26 25 24 23 24 23 23 20 21 28 32 35 37 37 39 39 39 42 44 44 41 41 44 39 37 40 44 52 55 55 58 63 66 69 74 77 77 81 84
36 34 36 29 31 28 26 26 26 27 27 26 23 22 21 26 34 38 38 41 42 42 43 44 44 42 40 40 38 39 45 50 54 57 59 62 66 70 74 75 78 82 84 87
39 40 38 31 33 30 27 28 28 29 30 29 29 27 27 27 29 35 39 41 44 46 47 47 46 44 40 43 43 47 49 53 56 60 63 66 68 71 74 76 80 83 86 89
41 40 33 37 33 31 29 31 30 31 32 32 32 32 32 31 32 33 39 43 45 48 50 50 49 48 47 49 51 54 55 57 60 63 66 68 70 73 76 79 82 86 89 92
41 38 34 37 38 31 31 37 35 33 35 36 37 37 35 37 35 37 37 40 50 52 52 53 53 53 53 54 55 57 59 61 64 67 69 72 74 77 79 83 85 88 92 95
40 36 32 46 39 35 33 40 36 38 38 40 42 43 41 39 38 39 41 42 44 48 55 56 56 56 57 58 60 62 64 67 70 72 74 76 79 81 84 87 90 94 97 100
40 36 36 45 42 40 36 45 39 41 44 45 47 46 48 48 44 41 44 47 47 47 48 51 58 60 60 61 63 65 69 72 75 77 79 82 84 87 90 93 97 98 101 103
40 38 37 50 47 42 43 43 45 48 48 50 52 50 50 51 52 47 46 46 48 48 42 46 49 54 60 63 65 67 70 74 77 80 83 87 89 92 95 96 98 100 102 105
44 42 45 48 49 47 47 48 48 49 51 54 54 54 54 57 57 55 52 49 52 44 39 42 51 47 47 53 56 60 66 74 79 84 87 90 93 95 98 100 100 100 99 99
48 47 50 52 54 53 52 53 52 54 57 57 54 56 58 59 59 59 58 54 56 57 51 49 50 53 60 65 66 70 73 72 73 77 82 86 88 89 90 90 92 94 96 98
50 53 57 57 58 56 56 56 54 56 59 59 57 60 60 61 61 62 65 61 63 66 67 63 63 65 67 67 69 72 73 74 73 73 74 76 78 82 86 89 92 94 95 98
56 60 61 59 58 57 58 57 55 57 60 60 61 62 62 60 62 65 62 63 67 70 73 72 74 74 73 73 74 73 72 73 72 72 73 78 82 85 88 89 91 94 98 101
59 61 62 62 61 60 59 59 57 58 60 62 63 64 62 65 64 65 66 67 71 74 75 74 74 72 74 74 70 69 69 70 71 73 79 82 84 87 90 93 97 100 103 107
63 63 62 62 62 62 60 58 58 60 62 64 66 62 66 68 69 71 72 71 73 76 78 78 77 71 73 73 71 71 72 73 76 79 81 84 87 91 94 98 102 106 109 113
64 65 65 64 63 62 61 60 62 63 66 66 64 68 69 69 71 74 74 77 80 83 84 79 77 77 81 79 78 79 79 80 82 84 86 90 94 97 100 104 108 111 114 115
65 63 62 62 62 63 62 62 64 66 67 67 67 67 68 72 75 75 77 81 84 84 87 90 91 92 91 91 90 89 87 88 88 90 94 97 100 103 106 110 114 114 114 112
64 64 64 65 65 66 66 66 67 68 68 69 69 72 74 77 80 82 84 86 86 88 94 93 94 96 95 97 96 94 92 92 95 98 102 105 106 109 114 113 114 113 111 108
66 65 66 68 68 69 70 68 67 68 69 72 73 76 78 80 84 81 84 89 92 94 96 98 98 94 96 95 94 96 97 100 103 105 108 111 113 113 114 113 112 110 109 107
67 68 67 67 67 68 69 70 71 72 74 76 77 78 80 83 86 90 92 95 95 96 99 97 95 95 94 96 99 101 103 106 109 111 113 113 113 113 112 111 109 107 105 102
67 67 68 70 71 73 74 74 75 76 77 80 82 84 87 88 92 94 95 94 95 99 99 96 95 96 99 101 103 106 109 112 112 112 113 113 112 111 110 109 107 104 101 98
64 66 68 71 73 74 76 76 78 80 83 85 86 89 92 93 95 94 95 96 97 95 95 96 98 100 103 106 107 109 109 111 112 112 112 110 110 110 108 106 103 100 96 92
66 67 69 71 73 74 76 78 81 84 86 87 90 92 94 93 93 94 95 94 94 96 98 99 100 102 104 106 108 110 111 111 111 110 109 110 109 106 104 101 98 94 90 86
66 68 69 71 74 77 79 82 84 86 87 88 89 89 90 92 94 92 93 95 98 99 100 101 102 105 107 109 110 110 109 109 108 109 107 105 103 100 97 94 90 87 84 80
67 68 71 74 76 77 78 78 79 81 83 86 88 90 93 94 91 91 95 98 98 100 102 104 106 107 108 108 108 107 107 107 105 103 102 100 96 93 90 87 84 80 78 75
67 68 66 65 69 73 75 79 82 84 86 88 90 91 90 91 94 97 98 99 101 102 104 106 106 105 106 105 105 105 102 100 99 96 94 90 88 85 83 80 78 75 71 68
64 66 71 76 79 82 83 83 84 85 85 85 87 90 93 95 97 99 100 101 103 104 103 102 103 103 102 101 99 97 96 93 90 88 86 83 81 79 76 74 71 68 66 64
72 75 79 84 85 84 81 79 79 82 85 88 92 94 95 96 98 100 101 100 100 101 102 101 99 97 95 94 92 90 88 86 84 82 79 77 74 71 70 68 66 64 61 58
Wind_Direction
263 270 272 284 289 297 298 305 313 314 320 335 328 308 276 269 270 272 275 276 279 281 283 283 283 280 279 277 277 270 265 259 263 268 274 277 280 283 285 288 290 292 293 294
262 264 270 281 282 289 289 296 307 309 321 324 321 319 310 285 274 269 272 273 279 282 278 275 276 276 277 277 275 268 263 264 266 271 276 278 280 282 284 288 290 293 294 295
254 259 269 279 279 282 288 292 301 304 314 322 318 319 321 319 292 276 273 273 274 278 282 281 279 279 274 273 271 273 273 273 274 275 277 279 282 285 287 289 290 292 294 296
251 257 266 257 272 275 284 284 291 303 303 311 316 317 316 317 314 305 283 276 275 277 278 280 283 283 281 278 277 276 278 279 280 282 283 284 286 287 288 290 292 294 295 296
246 250 255 262 262 273 280 279 289 297 296 301 308 313 311 313 311 314 308 289 277 274 274 276 276 279 282 282 282 283 283 284 284 285 286 287 288 289 291 292 293 295 295 295
245 245 254 251 263 269 277 272 289 288 296 296 302 306 309 310 308 314 312 308 295 281 273 273 274 276 277 278 280 281 282 283 284 285 286 287 289 290 291 293 294 294 295 295
242 245 250 258 266 268 279 275 291 288 290 291 297 302 305 306 307 308 311 316 307 295 287 279 275 275 278 279 281 282 284 284 285 286 287 288 289 290 291 291 292 294 295 297
243 248 251 253 264 271 276 282 283 291 289 287 290 295 299 299 304 305 305 312 314 307 304 292 286 283 283 283 285 287 288 287 287 287 287 287 287 289 291 293 294 295 296 298
243 247 252 261 267 271 277 281 284 283 283 284 287 289 295 297 300 301 302 305 313 307 295 297 300 295 294 293 291 292 292 289 286 285 285 286 287 288 289 291 292 294 296 298
247 254 257 262 267 271 277 279 284 282 279 286 284 285 288 294 296 298 301 302 307 310 311 296 292 293 297 295 293 293 293 294 290 288 288 288 289 290 292 294 295 296 297 298
249 255 258 262 269 275 279 280 283 278 279 281 284 286 288 294 296 295 299 302 304 307 309 306 301 297 294 297 297 298 295 294 293 291 291 291 293 294 295 296 297 297 297 298
248 254 262 268 269 272 275 279 279 276 277 280 284 288 291 292 294 293 296 298 301 301 301 303 303 301 299 301 301 297 296 297 296 295 297 299 299 299 299 299 298 298 299 301
251 256 262 266 272 274 274 278 275 275 277 280 284 287 290 293 296 295 295 296 298 300 303 305 306 305 307 306 303 300 299 299 298 299 302 301 301 300 300 299 300 302 303 304
255 259 263 268 271 274 274 273 277 278 281 281 286 289 293 295 295 293 294 295 298 301 306 305 304 309 309 308 306 305 304 303 303 301 301 301 301 300 301 302 303 304 305 306
254 261 266 268 269 270 272 278 278 280 282 285 287 288 290 292 292 294 292 293 297 302 300 304 307 310 313 310 309 307 306 305 303 302 302 303 303 303 303 304 305 305 305 306
259 262 262 263 265 269 274 276 278 280 280 282 287 289 289 291 292 294 294 296 298 303 313 312 311 309 310 312 309 306 305 303 303 304 304 304 304 305 304 305 305 305 307 308
257 259 261 263 267 271 273 275 279 279 280 284 287 289 291 294 297 298 298 304 310 307 306 306 305 306 305 305 304 302 302 304 305 306 305 306 306 305 305 306 307 308 309 310
255 258 261 267 270 273 276 279 279 281 282 284 287 291 293 295 298 303 301 300 298 300 303 303 302 302 301 301 302 305 306 306 305 305 305 305 304 305 306 308 309 309 310 310
255 258 262 267 271 274 276 278 280 283 284 287 289 291 291 292 292 293 295 296 297 299 302 302 302 302 302 303 304 304 304 304 304 304 304 305 306 307 308 308 309 310 310 310
257 260 262 265 268 271 273 275 277 280 283 284 286 287 288 289 290 292 295 297 298 300 301 300 300 301 303 303 303 303 302 302 303 304 305 305 306 307 308 309 309 309 310 311
259 262 264 266 268 269 271 274 276 278 279 282 285 286 288 290 292 294 295 296 297 297 299 301 301 301 301 301 300 300 302 303 304 304 305 306 307 308 309 308 309 309 310 310
263 264 265 266 266 268 270 272 275 278 282 284 286 287 289 290 292 294 295 296 299 300 299 299 299 299 298 299 301 302 303 303 304 305 306 307 307 307 308 308 309 309 309 309
261 262 265 267 268 270 273 276 279 281 283 284 286 289 291 294 295 295 295 296 296 296 297 297 298 299 300 300 301 302 303 304 305 306 306 306 306 307 308 308 308 308 309 309
259 261 264 268 273 276 278 279 280 282 285 288 290 292 292 293 294 295 295 295 296 297 297 297 298 298 299 301 302 303 305 305 305 305 305 305 306 306 307 308 308 308 309 309
267 268 273 275 279 282 284 286 287 288 288 289 291 293 293 293 294 294 296 296 295 296 296 297 298 300 301 303 304 304 304 304 304 304 305 305 306 307 307 308 308 308 309 309
273 277 279 280 282 285 287 286 286 288 289 291 292 293 293 294 295 295 294 295 296 296 298 299 301 302 303 303 303 303 303 304 304 305 306 306 307 307 308 308 308 308 309 309
276 278 280 283 285 287 288 288 288 288 289 291 293 294 294 293 293 294 295 296 297 299 301 302 303 303 303 303 303 303 304 305 306 306 307 307 308 308 308 308 309 309 310 310
Height
10565 10568 10569 10567 10565 10566 10565 10564 10560 10557 10554 10554 10550 10547 10544 10545 10545 10544 10542 10539 10537 10535 10532 10529 10528 10528 10525 10520 10520 10518 10517 10514 10510 10508 10506 10501 10496 10490 10482 10475 10469 10463 10453 10444
10556 10558 10560 10560 10556 10559 10558 10557 10554 10550 10548 10547 10544 10541 10538 10535 10534 10534 10534 10531 10528 10527 10525 10523 10519 10518 10515 10510 10508 10507 10505 10503 10500 10498 10493 10487 10482 10476 10468 10462 10454 10444 10435 10425
10545 10548 10552 10551 10548 10549 10550 10548 10547 10544 10542 10540 10537 10534 10531 10528 10525 10523 10523 10523 10520 10517 10513 10511 10509 10509 10506 10502 10499 10497 10494 10491 10487 10483 10478 10473 10466 10461 10453 10445 10437 10428 10418 10407
10536 10539 10546 10535 10539 10540 10542 10539 10539 10537 10535 10532 10530 10528 10524 10521 10518 10514 10511 10510 10509 10506 10502 10499 10497 10496 10495 10491 10488 10484 10481 10477 10472 10467 10462 10456 10450 10443 10436 10427 10418 10408 10398 10388
10527 10531 10534 10530 10527 10532 10533 10529 10530 10530 10526 10524 10522 10520 10517 10513 10509 10505 10501 10497 10495 10493 10490 10487 10484 10481 10480 10478 10475 10470 10466 10461 10456 10451 10445 10439 10432 10424 10417 10408 10399 10389 10378 10367
10517 10522 10525 10514 10519 10522 10524 10517 10521 10520 10518 10515 10512 10509 10508 10504 10499 10495 10490 10486 10481 10477 10475 10474 10472 10469 10466 10463 10459 10456 10452 10446 10440 10434 10428 10421 10413 10405 10397 10388 10377 10367 10356 10346
10505 10512 10513 10506 10508 10511 10514 10505 10510 10509 10507 10504 10502 10499 10495 10492 10490 10485 10481 10475 10469 10464 10460 10457 10456 10453 10450 10447 10443 10439 10433 10428 10421 10414 10408 10400 10392 10382 10374 10366 10356 10346 10335 10323
10494 10501 10504 10493 10497 10501 10500 10501 10499 10498 10494 10492 10490 10488 10486 10481 10478 10475 10470 10465 10459 10454 10448 10442 10440 10437 10435 10431 10427 10421 10414 10408 10401 10393 10385 10377 10369 10361 10353 10345 10334 10323 10311 10297
10482 10487 10488 10488 10487 10489 10489 10490 10490 10489 10485 10481 10479 10476 10473 10469 10466 10462 10458 10453 10448 10443 10437 10433 10428 10423 10419 10413 10407 10401 10395 10388 10380 10372 10364 10356 10347 10338 10329 10320 10311 10299 10287 10274
10471 10476 10475 10475 10475 10477 10478 10477 10478 10477 10472 10470 10468 10465 10461 10457 10453 10448 10444 10440 10435 10430 10425 10419 10413 10409 10403 10397 10390 10383 10375 10367 10357 10348 10340 10331 10323 10314 10305 10295 10285 10275 10264 10251
10463 10462 10459 10460 10463 10465 10465 10464 10464 10463 10460 10458 10456 10452 10448 10444 10440 10435 10429 10425 10420 10414 10409 10404 10399 10392 10385 10378 10371 10362 10353 10344 10335 10326 10317 10308 10300 10290 10281 10272 10261 10250 10239 10227
10446 10444 10445 10449 10450 10452 10449 10450 10451 10450 10446 10445 10441 10438 10435 10431 10426 10422 10416 10410 10405 10398 10393 10387 10381 10374 10366 10358 10348 10339 10330 10321 10312 10303 10295 10286 10277 10267 10254 10244 10236 10225 10214 10202
10432 10431 10433 10436 10438 10437 10435 10435 10436 10435 10432 10431 10427 10424 10420 10416 10410 10405 10400 10395 10388 10382 10375 10369 10361 10353 10344 10335 10326 10317 10308 10299 10291 10283 10273 10263 10252 10242 10231 10222 10206 10195 10184 10172
10416 10419 10421 10423 10423 10421 10420 10421 10421 10419 10417 10415 10412 10408 10404 10399 10394 10389 10384 10378 10371 10364 10357 10349 10342 10333 10323 10314 10305 10296 10288 10279 10270 10260 10250 10240 10229 10218 10206 10194 10180 10167 10156 10138
10401 10406 10409 10409 10408 10407 10406 10407 10405 10404 10402 10399 10396 10392 10388 10383 10377 10371 10365 10359 10352 10345 10339 10329 10316 10307 10299 10292 10283 10275 10266 10256 10247 10237 10227 10217 10205 10194 10181 10168 10154 10140 10124 10111
10393 10395 10394 10394 10394 10394 10394 10393 10390 10389 10386 10384 10380 10375 10370 10365 10359 10353 10346 10339 10331 10321 10306 10298 10292 10283 10275 10266 10260 10252 10243 10234 10224 10214 10203 10192 10180 10167 10154 10140 10126 10110 10096 10081
10380 10380 10381 10381 10381 10381 10380 10379 10376 10373 10371 10367 10362 10357 10352 10345 10337 10330 10322 10313 10304 10299 10292 10284 10275 10264 10255 10247 10238 10229 10220 10209 10198 10187 10176 10165 10152 10140 10126 10110 10096 10081 10066 10053
10366 10368 10368 10366 10366 10365 10363 10362 10360 10357 10354 10349 10345 10339 10332 10326 10316 10308 10303 10299 10291 10282 10273 10264 10254 10244 10234 10224 10214 10203 10192 10182 10171 10160 10149 10137 10124 10111 10097 10082 10068 10054 10040 10025
10353 10354 10354 10353 10351 10349 10347 10345 10342 10339 10335 10331 10327 10322 10315 10309 10301 10294 10287 10279 10270 10260 10250 10239 10229 10219 10209 10198 10188 10178 10166 10155 10144 10133 10120 10108 10094 10080 10066 10053 10040 10027 10013 10000
10340 10340 10340 10339 10338 10335 10333 10330 10326 10323 10319 10314 10308 10303 10297 10290 10282 10274 10266 10255 10246 10236 10226 10216 10206 10195 10184 10173 10162 10152 10140 10129 10116 10104 10091 10078 10064 10051 10038 10025 10012 9999 9986 9973
10326 10325 10324 10323 10321 10319 10317 10314 10310 10305 10300 10295 10289 10283 10275 10267 10259 10250 10241 10232 10223 10212 10202 10191 10180 10169 10159 10148 10137 10126 10114 10101 10089 10075 10062 10050 10036 10022 10009 9997 9984 9972 9960 9948
10310 10309 10307 10305 10303 10301 10298 10294 10290 10286 10280 10275 10268 10260 10252 10243 10235 10226 10217 10207 10196 10186 10177 10167 10156 10145 10133 10122 10110 10098 10086 10073 10059 10046 10033 10021 10008 9995 9982 9970 9959 9947 9935 9925
10294 10293 10291 10289 10286 10283 10279 10274 10270 10265 10258 10251 10244 10236 10228 10219 10210 10201 10192 10182 10173 10163 10153 10141 10130 10118 10106 10094 10082 10069 10057 10044 10031 10018 10006 9993 9981 9969 9957 9946 9935 9924 9913 9902
10277 10275 10273 10271 10269 10265 10260 10253 10248 10242 10235 10228 10221 10213 10204 10196 10186 10177 10167 10157 10146 10136 10124 10114 10102 10090 10078 10066 10053 10041 10028 10016 10004 9991 9978 9967 9956 9944 9934 9923 9911 9900 9890 9880
10261 10258 10256 10253 10249 10245 10238 10232 10225 10219 10212 10205 10196 10188 10180 10171 10161 10151 10141 10131 10119 10109 10098 10086 10074 10062 10049 10037 10024 10013 10000 9988 9977 9965 9954 9943 9932 9921 9911 9900 9889 9879 9869 9860
10243 10241 10237 10233 10228 10223 10217 10210 10204 10197 10189 10181 10172 10163 10154 10144 10135 10124 10114 10103 10092 10080 10068 10057 10045 10033 10022 10009 9997 9986 9974 9963 9952 9941 9930 9920 9910 9899 9889 9878 9869 9860 9851 9842
10225 10222 10217 10211 10205 10199 10193 10187 10180 10173 10164 10155 10147 10138 10128 10118 10108 10097 10086 10074 10063 10052 10040 10029 10018 10006 9995 9984 9972 9960 9949 9939 9928 9917 9907 9898 9888 9878 9868 9858 9849 9841 9833 9825